timestamp,wind_dir_avg,wind_spd_max_dir,wind_spd_avg,wind_spd_gust,battery_voltage,lat,long
2018-12-23 00:00:00+00:00,187.0,185.0,13.92,16.68,,47.59359,-54.27349
2018-12-23 00:10:00+00:00,187.0,182.0,13.6,15.51,,47.59359,-54.27349
2018-12-23 00:20:00+00:00,187.0,187.0,12.65,14.39,,47.59359,-54.27349
2018-12-23 00:30:00+00:00,185.0,181.0,12.72,14.88,,47.59359,-54.27349
2018-12-23 00:40:00+00:00,182.0,190.0,12.69,14.5,,47.59359,-54.27349
2018-12-23 00:50:00+00:00,190.0,193.0,13.04,14.57,,47.59359,-54.27349
2018-12-23 01:00:00+00:00,187.0,185.0,13.96,16.34,,47.59359,-54.27349
2018-12-23 01:10:00+00:00,189.0,192.0,16.05,18.28,,47.59359,-54.27349
2018-12-23 01:20:00+00:00,190.0,190.0,15.52,17.94,,47.59359,-54.27349
2018-12-23 01:30:00+00:00,193.0,189.0,12.78,14.81,,47.59359,-54.27349
2018-12-23 01:40:00+00:00,201.0,207.0,14.17,15.98,,47.59359,-54.27349
2018-12-23 01:50:00+00:00,196.0,192.0,13.72,15.81,,47.59359,-54.27349
2018-12-23 02:00:00+00:00,197.0,196.0,13.01,15.25,,47.59359,-54.27349
2018-12-23 02:10:00+00:00,195.0,197.0,13.34,16.03,,47.59359,-54.27349
2018-12-23 02:20:00+00:00,186.0,182.0,14.11,16.89,,47.59359,-54.27349
2018-12-23 02:30:00+00:00,182.0,185.0,13.04,14.72,,47.59359,-54.27349
2018-12-23 02:40:00+00:00,182.0,182.0,15.27,17.06,,47.59359,-54.27349
2018-12-23 02:50:00+00:00,179.0,176.0,15.07,17.98,,47.59359,-54.27349
2018-12-23 03:00:00+00:00,177.0,182.0,15.13,17.18,,47.59359,-54.27349
2018-12-23 03:10:00+00:00,178.0,176.0,14.71,17.3,,47.59359,-54.27349
2018-12-23 03:20:00+00:00,182.0,177.0,16.02,18.56,,47.59359,-54.27349
2018-12-23 03:30:00+00:00,182.0,183.0,17.03,21.59,,47.59359,-54.27349
2018-12-23 03:40:00+00:00,182.0,185.0,15.92,18.52,,47.59359,-54.27349
2018-12-23 03:50:00+00:00,175.0,172.0,16.13,18.52,,47.59359,-54.27349
2018-12-23 04:00:00+00:00,177.0,178.0,16.4,18.9,,47.59359,-54.27349
2018-12-23 04:10:00+00:00,176.0,174.0,16.39,19.0,,47.59359,-54.27349
2018-12-23 04:20:00+00:00,176.0,172.0,17.06,20.19,,47.59359,-54.27349
2018-12-23 04:30:00+00:00,175.0,176.0,16.29,18.17,,47.59359,-54.27349
2018-12-23 04:40:00+00:00,176.0,176.0,17.0,19.59,,47.59359,-54.27349
2018-12-23 04:50:00+00:00,180.0,181.0,16.6,19.83,,47.59359,-54.27349
2018-12-23 05:00:00+00:00,181.0,177.0,18.28,24.36,,47.59359,-54.27349
2018-12-23 05:10:00+00:00,184.0,181.0,17.74,22.75,,47.59359,-54.27349
2018-12-23 05:20:00+00:00,184.0,181.0,16.87,20.34,,47.59359,-54.27349
2018-12-23 05:30:00+00:00,187.0,203.0,17.06,22.05,,47.59359,-54.27349
2018-12-23 05:40:00+00:00,195.0,194.0,17.53,20.18,,47.59359,-54.27349
2018-12-23 05:50:00+00:00,197.0,199.0,16.63,21.85,,47.59359,-54.27349
2018-12-23 06:00:00+00:00,195.0,200.0,18.82,22.77,,47.59359,-54.27349
2018-12-23 06:10:00+00:00,205.0,201.0,17.75,21.99,,47.59359,-54.27349
2018-12-23 06:20:00+00:00,206.0,199.0,17.96,21.53,,47.59359,-54.27349
2018-12-23 06:30:00+00:00,204.0,212.0,18.26,21.29,,47.59359,-54.27349
2018-12-23 06:40:00+00:00,198.0,189.0,16.44,20.03,,47.59359,-54.27349
2018-12-23 06:50:00+00:00,201.0,200.0,14.37,16.42,,47.59359,-54.27349
2018-12-23 07:00:00+00:00,204.0,201.0,16.44,19.23,,47.59359,-54.27349
2018-12-23 07:10:00+00:00,199.0,199.0,17.47,19.34,,47.59359,-54.27349
2018-12-23 07:20:00+00:00,206.0,198.0,16.36,19.44,,47.59359,-54.27349
2018-12-23 07:30:00+00:00,212.0,216.0,16.37,18.51,,47.59359,-54.27349
2018-12-23 07:40:00+00:00,214.0,214.0,15.7,17.39,,47.59359,-54.27349
2018-12-23 07:50:00+00:00,215.0,218.0,15.37,17.21,,47.59359,-54.27349
2018-12-23 08:00:00+00:00,215.0,215.0,14.72,16.47,,47.59359,-54.27349
2018-12-23 08:10:00+00:00,250.0,255.0,9.33,11.03,,47.59359,-54.27349
2018-12-23 08:20:00+00:00,246.0,243.0,12.35,14.37,,47.59359,-54.27349
2018-12-23 08:30:00+00:00,240.0,237.0,13.23,14.89,,47.59359,-54.27349
2018-12-23 08:40:00+00:00,236.0,237.0,11.66,13.97,,47.59359,-54.27349
2018-12-23 08:50:00+00:00,236.0,235.0,11.27,12.59,,47.59359,-54.27349
2018-12-23 09:00:00+00:00,233.0,233.0,10.23,12.15,,47.59359,-54.27349
2018-12-23 09:10:00+00:00,239.0,251.0,8.88,10.88,,47.59359,-54.27349
2018-12-23 09:20:00+00:00,242.0,241.0,11.39,12.85,,47.59359,-54.27349
2018-12-23 09:30:00+00:00,238.0,237.0,11.48,13.02,,47.59359,-54.27349
2018-12-23 09:40:00+00:00,227.0,225.0,9.89,11.19,,47.59359,-54.27349
2018-12-23 09:50:00+00:00,226.0,225.0,11.83,13.01,,47.59359,-54.27349
2018-12-23 10:00:00+00:00,218.0,217.0,9.11,10.18,,47.59359,-54.27349
2018-12-23 10:10:00+00:00,216.0,219.0,9.87,11.34,,47.59359,-54.27349
2018-12-23 10:20:00+00:00,228.0,231.0,8.37,9.69,,47.59359,-54.27349
2018-12-23 10:30:00+00:00,224.0,225.0,7.38,8.4,,47.59359,-54.27349
2018-12-23 10:40:00+00:00,227.0,231.0,7.71,8.76,,47.59359,-54.27349
2018-12-23 10:50:00+00:00,229.0,229.0,7.59,8.5,,47.59359,-54.27349
2018-12-23 11:00:00+00:00,233.0,233.0,7.01,8.13,,47.59359,-54.27349
2018-12-23 11:10:00+00:00,225.0,231.0,7.17,8.95,,47.59359,-54.27349
2018-12-23 11:20:00+00:00,214.0,216.0,5.96,6.67,,47.59359,-54.27349
2018-12-23 11:30:00+00:00,224.0,231.0,8.29,10.34,,47.59359,-54.27349
2018-12-23 11:40:00+00:00,230.0,230.0,8.71,10.0,,47.59359,-54.27349
2018-12-23 11:50:00+00:00,220.0,218.0,8.01,9.03,,47.59359,-54.27349
2018-12-23 12:00:00+00:00,221.0,219.0,7.26,8.31,,47.59359,-54.27349
2018-12-23 12:10:00+00:00,231.0,238.0,9.99,12.05,,47.59359,-54.27349
2018-12-23 12:20:00+00:00,219.0,219.0,6.98,7.86,,47.59359,-54.27349
2018-12-23 12:30:00+00:00,231.0,229.0,10.51,12.15,,47.59359,-54.27349
2018-12-23 12:40:00+00:00,225.0,223.0,8.88,10.25,,47.59359,-54.27349
2018-12-23 12:50:00+00:00,226.0,231.0,7.44,8.58,,47.59359,-54.27349
2018-12-23 13:00:00+00:00,228.0,230.0,8.92,10.18,,47.59359,-54.27349
2018-12-23 13:10:00+00:00,229.0,230.0,9.75,11.9,,47.59359,-54.27349
2018-12-23 13:20:00+00:00,226.0,229.0,9.95,11.89,,47.59359,-54.27349
2018-12-23 13:30:00+00:00,218.0,218.0,8.44,9.89,,47.59359,-54.27349
2018-12-23 13:40:00+00:00,223.0,230.0,8.85,9.68,,47.59359,-54.27349
2018-12-23 13:50:00+00:00,219.0,222.0,8.89,10.49,,47.59359,-54.27349
2018-12-23 14:00:00+00:00,226.0,225.0,10.29,12.08,,47.59359,-54.27349
2018-12-23 14:10:00+00:00,226.0,226.0,9.75,11.48,,47.59359,-54.27349
2018-12-23 14:20:00+00:00,222.0,223.0,9.71,10.86,,47.59359,-54.27349
2018-12-23 14:30:00+00:00,220.0,219.0,9.47,10.96,,47.59359,-54.27349
2018-12-23 14:40:00+00:00,221.0,219.0,8.04,9.22,,47.59359,-54.27349
2018-12-23 14:50:00+00:00,218.0,219.0,7.06,8.22,,47.59359,-54.27349
2018-12-23 15:00:00+00:00,217.0,216.0,8.77,9.91,,47.59359,-54.27349
2018-12-23 15:10:00+00:00,217.0,221.0,10.8,12.1,,47.59359,-54.27349
2018-12-23 15:20:00+00:00,225.0,224.0,10.01,11.15,,47.59359,-54.27349
2018-12-23 15:30:00+00:00,228.0,232.0,8.82,10.68,,47.59359,-54.27349
2018-12-23 15:40:00+00:00,218.0,218.0,9.72,10.7,,47.59359,-54.27349
2018-12-23 15:50:00+00:00,225.0,234.0,9.1,10.62,,47.59359,-54.27349
2018-12-23 16:00:00+00:00,224.0,220.0,9.42,11.55,,47.59359,-54.27349
2018-12-23 16:10:00+00:00,221.0,220.0,9.72,10.88,,47.59359,-54.27349
2018-12-23 16:20:00+00:00,203.0,205.0,11.81,13.87,,47.59359,-54.27349
2018-12-23 16:30:00+00:00,207.0,203.0,14.48,15.7,,47.59359,-54.27349
2018-12-23 16:40:00+00:00,216.0,221.0,12.18,13.82,,47.59359,-54.27349
2018-12-23 16:50:00+00:00,224.0,224.0,10.63,11.63,,47.59359,-54.27349
2018-12-23 17:00:00+00:00,233.0,235.0,10.36,12.69,,47.59359,-54.27349
2018-12-23 17:10:00+00:00,232.0,234.0,9.47,10.96,,47.59359,-54.27349
2018-12-23 17:20:00+00:00,216.0,219.0,13.37,14.83,,47.59359,-54.27349
2018-12-23 17:30:00+00:00,229.0,229.0,11.88,14.18,,47.59359,-54.27349
2018-12-23 17:40:00+00:00,226.0,224.0,11.23,13.18,,47.59359,-54.27349
2018-12-23 17:50:00+00:00,229.0,231.0,11.93,14.89,,47.59359,-54.27349
2018-12-23 18:00:00+00:00,227.0,225.0,10.77,12.24,,47.59359,-54.27349
2018-12-23 18:10:00+00:00,228.0,224.0,10.65,12.08,,47.59359,-54.27349
2018-12-23 18:20:00+00:00,226.0,225.0,11.18,12.91,,47.59359,-54.27349
2018-12-23 18:30:00+00:00,229.0,229.0,9.87,11.21,,47.59359,-54.27349
2018-12-23 18:40:00+00:00,226.0,221.0,8.81,10.82,,47.59359,-54.27349
2018-12-23 18:50:00+00:00,231.0,230.0,9.5,10.73,,47.59359,-54.27349
2018-12-23 19:00:00+00:00,234.0,234.0,7.26,8.88,,47.59359,-54.27349
2018-12-23 19:10:00+00:00,239.0,236.0,8.34,10.77,,47.59359,-54.27349
2018-12-23 19:20:00+00:00,237.0,242.0,9.31,10.88,,47.59359,-54.27349
2018-12-23 19:30:00+00:00,224.0,218.0,7.65,10.66,,47.59359,-54.27349
2018-12-23 19:40:00+00:00,219.0,212.0,7.96,10.73,,47.59359,-54.27349
2018-12-23 19:50:00+00:00,225.0,228.0,9.12,11.49,,47.59359,-54.27349
2018-12-23 20:00:00+00:00,230.0,237.0,9.83,12.23,,47.59359,-54.27349
2018-12-23 20:10:00+00:00,239.0,242.0,12.67,14.25,,47.59359,-54.27349
2018-12-23 20:20:00+00:00,256.0,253.0,12.16,13.15,,47.59359,-54.27349
2018-12-23 20:30:00+00:00,262.0,263.0,12.67,13.36,,47.59359,-54.27349
2018-12-23 20:40:00+00:00,264.0,262.0,17.24,18.37,,47.59359,-54.27349
2018-12-23 20:50:00+00:00,265.0,271.0,15.17,16.54,,47.59359,-54.27349
2018-12-23 21:00:00+00:00,270.0,279.0,13.95,17.31,,47.59359,-54.27349
2018-12-23 21:10:00+00:00,269.0,282.0,10.74,12.59,,47.59359,-54.27349
2018-12-23 21:20:00+00:00,269.0,263.0,8.39,9.66,,47.59359,-54.27349
2018-12-23 21:30:00+00:00,272.0,275.0,8.21,9.49,,47.59359,-54.27349
2018-12-23 21:40:00+00:00,275.0,279.0,8.99,10.91,,47.59359,-54.27349
2018-12-23 21:50:00+00:00,272.0,277.0,10.92,12.98,,47.59359,-54.27349
2018-12-23 22:00:00+00:00,275.0,278.0,11.44,12.16,,47.59359,-54.27349
2018-12-23 22:10:00+00:00,279.0,282.0,12.01,13.28,,47.59359,-54.27349
2018-12-23 22:20:00+00:00,284.0,283.0,12.97,14.76,,47.59359,-54.27349
2018-12-23 22:30:00+00:00,287.0,287.0,10.24,11.91,,47.59359,-54.27349
2018-12-23 22:40:00+00:00,289.0,290.0,13.2,15.51,,47.59359,-54.27349
2018-12-23 22:50:00+00:00,290.0,290.0,10.64,12.14,,47.59359,-54.27349
2018-12-23 23:00:00+00:00,285.0,288.0,9.94,11.1,,47.59359,-54.27349
2018-12-23 23:10:00+00:00,281.0,285.0,12.02,14.04,,47.59359,-54.27349
2018-12-23 23:20:00+00:00,297.0,288.0,12.83,15.76,,47.59359,-54.27349
2018-12-23 23:30:00+00:00,289.0,288.0,12.21,13.94,,47.59359,-54.27349
2018-12-23 23:40:00+00:00,297.0,301.0,10.55,12.5,,47.59359,-54.27349
2018-12-23 23:50:00+00:00,301.0,299.0,9.21,10.57,,47.59359,-54.27349
